sat.trackr.live / text

‹ back to catalog

STARLINK-30594

NORAD 58097 · 2023-161A

PAYLOAD ACTIVE UNKNOWN

§ Identity

Operator
Country
US
Launch date
2023-10-21
Launch site
AFWTR
Launch vehicle
Mass (kg)
RCS (m²)

Purposes: comms

External: N2YO · Heavens-Above · Gunter

§ Orbital elements

Epoch: 2026-05-24T18:59:56.848416Z

Period
94.11 min
Inclination
53.1592°
Eccentricity
0.0001335
Mean motion
15.30196830 rev/d
Perigee alt
474.3 km
Apogee alt
476.1 km
Semi-major
6,853.4 km
B*
-2.9170e-5
RAAN
172.0126°
Arg perigee
71.6680°
Mean anomaly
288.4466°
Rev number
14,607

§ Raw data

STARLINK-305941 58097U 23161A   26144.79163019 -.00001223  00000+0 -29170-4 0  99972 58097  53.1592 172.0126 0001335  71.6680 288.4466 15.30196830146077

JSON: /api/v1/satellites/58097 · /tle

For live sub-satellite position, see the globe view (requires WebGL).

§ Visibility from observer

Set your observer location to see the next 7 days of passes ≥ 10°. The values pass through the URL so the page stays shareable.

No JS? Fill the form by hand. The geolocation button needs JavaScript.